Weather in Alakit

Russia / Sakha (Yakutia) Republic     66°06′06″N   110°32′53″E
temp.,
°C
wind,
m/s
gust,
m/s
humid.,
%
clouds,
%
prec.,
mm/h
press.,
hPa
HPBL,
m
12 may, wed
wed1200:00−9nnw22935 0.0 102710
03:00−10nw22935 0.0 102610
06:00−9wnw21935 0.0 102511
09:00−4n22795 0.0 1023273
12:00−3n12745 0.0 1022401
15:00−1w126853 0.0 1021459
18:000wsw237044 0.0 1019492
21:00−2sw228067 0.0 101916
13 may, thu
thu1300:00−4ssw338685 0.0 101926
03:00−5ssw458449 0.0 101847
06:00−4ssw587978 0.0 1016107
09:000sw51272100 0.0 1014356
12:00+3sw71172100 0.0 1012545
15:00+5wsw81165100 0.0 1011765
18:00+6wsw7106394 0.0 1010857
21:00+4sw4473100 0.0 101039
14 may, fri
fri1400:00+2ssw4472100 0.0 101035
03:00+1ssw4470100 0.0 100936
06:00+1ssw566966 0.0 100873
09:00+4s5106173 0.0 1006383
12:00+5ssw101466100 0.1 1005958
15:00+5ssw81192100 0.1 1003686
18:00+3sw61197100 0.8 1004607
21:00+3wsw61091100 0.8 1004449
15 may, sat
sat1500:00+1sw2293100 0.0 100416
03:000ssw1194100 0.0 100210
06:00+1s23100100 0.9 1000196
09:00+1sw11100100 4.4 99860
12:00+1n11100100 3.4 99672
15:00+2ssw2395100 3.7 995457
18:00+2sw4695100 0.1 995403
21:00+1wsw4675100 0.1 995231
16 may, sun
sun1600:00−1ssw338099 0.0 99527
03:00−2sw22855 0.0 99524
06:00−5n91394100 1.1 998728
09:00−7n91289100 2.3 1002728
12:00−6n101287100 0.6 1005955
15:00−5nnw7983100 1.4 10071068
18:00−4nnw6874100 0.3 10081144
21:00−5nw467698 0.4 1008806